Time,TemperatureF,DewpointF,PressureIn,WindDirection,WindDirectionDegrees,WindSpeedMPH,WindSpeedGustMPH,Humidity,HourlyPrecipIn,Conditions,Clouds,dailyrainin,SoftwareType,DateUTC
2013-02-03 11:22:00,39.0,24.0,29.98,SSE,157,0.0,2.0,55,0.00,,,0.00,,2013-02-03 18:22:00,
2013-02-03 11:31:00,39.0,24.0,29.98,SSE,157,0.0,2.0,55,0.00,,,0.00,,2013-02-03 18:31:00,
2013-02-03 11:42:00,39.0,24.0,29.98,SSE,157,0.0,2.0,55,0.00,,,0.00,,2013-02-03 18:42:00,
2013-02-03 11:52:00,41.0,26.0,30.00,ESE,113,1.0,3.0,54,0.00,,,0.00,,2013-02-03 18:52:00,
2013-02-03 12:01:00,41.0,26.0,30.00,ESE,113,1.0,3.0,54,0.00,,,0.00,,2013-02-03 19:01:00,
2013-02-03 12:21:00,41.0,25.0,29.98,ENE,65,1.0,4.0,52,0.01,,,0.01,,2013-02-03 19:21:00,
2013-02-03 12:31:00,41.0,25.0,29.98,ENE,65,1.0,4.0,52,0.01,,,0.01,,2013-02-03 19:31:00,
2013-02-03 12:42:00,41.0,25.0,29.98,ENE,65,1.0,4.0,52,0.01,,,0.01,,2013-02-03 19:42:00,
2013-02-03 12:52:00,42.0,26.0,29.96,East,88,1.0,4.0,52,0.01,,,0.01,,2013-02-03 19:52:00,
2013-02-03 13:01:00,42.0,26.0,29.96,East,88,1.0,4.0,52,0.01,,,0.01,,2013-02-03 20:01:00,
2013-02-03 13:11:00,42.0,26.0,29.96,East,88,1.0,4.0,52,0.01,,,0.01,,2013-02-03 20:11:00,
2013-02-03 13:21:00,42.0,26.0,29.96,NNE,19,0.0,3.0,52,0.00,,,0.01,,2013-02-03 20:21:00,
2013-02-03 13:31:00,42.0,26.0,29.96,NNE,19,0.0,3.0,52,0.00,,,0.01,,2013-02-03 20:31:00,
2013-02-03 13:42:00,42.0,26.0,29.96,NNE,19,0.0,3.0,52,0.00,,,0.01,,2013-02-03 20:42:00,
2013-02-03 13:52:00,41.0,24.0,29.96,NNW,341,0.0,3.0,51,0.00,,,0.01,,2013-02-03 20:52:00,
2013-02-03 14:02:00,41.0,24.0,29.96,NNW,341,0.0,3.0,51,0.00,,,0.01,,2013-02-03 21:02:00,
2013-02-03 14:11:00,41.0,24.0,29.96,NNW,341,0.0,3.0,51,0.00,,,0.01,,2013-02-03 21:11:00,
2013-02-03 14:21:00,41.0,25.0,29.95,ENE,64,1.0,4.0,52,0.00,,,0.01,,2013-02-03 21:21:00,
2013-02-03 14:31:00,41.0,25.0,29.95,ENE,64,1.0,4.0,52,0.00,,,0.01,,2013-02-03 21:31:00,
2013-02-03 14:42:00,41.0,25.0,29.95,ENE,64,1.0,4.0,52,0.00,,,0.01,,2013-02-03 21:42:00,
2013-02-03 14:52:00,40.0,25.0,29.96,NW,324,1.0,3.0,54,0.00,,,0.01,,2013-02-03 21:52:00,
2013-02-03 15:01:00,40.0,25.0,29.96,NW,324,1.0,3.0,54,0.00,,,0.01,,2013-02-03 22:01:00,
2013-02-03 15:11:00,40.0,25.0,29.96,NW,324,1.0,3.0,54,0.00,,,0.01,,2013-02-03 22:11:00,
2013-02-03 15:21:00,41.0,24.0,29.93,ESE,123,1.0,3.0,51,0.00,,,0.01,,2013-02-03 22:21:00,
2013-02-03 15:31:00,41.0,24.0,29.93,ESE,123,1.0,3.0,51,0.00,,,0.01,,2013-02-03 22:31:00,
2013-02-03 15:42:00,41.0,24.0,29.93,ESE,123,1.0,3.0,51,0.00,,,0.01,,2013-02-03 22:42:00,
2013-02-03 15:52:00,40.0,25.0,29.95,SSE,153,0.0,4.0,55,0.00,,,0.01,,2013-02-03 22:52:00,
2013-02-03 16:01:00,40.0,25.0,29.95,SSE,153,0.0,4.0,55,0.00,,,0.01,,2013-02-03 23:01:00,
2013-02-03 16:11:00,40.0,25.0,29.95,SSE,153,0.0,4.0,55,0.00,,,0.01,,2013-02-03 23:11:00,
2013-02-03 16:21:00,40.0,25.0,29.95,SSE,153,0.0,4.0,55,0.00,,,0.01,,2013-02-03 23:21:00,
2013-02-03 16:32:00,40.0,25.0,29.95,SSE,153,0.0,4.0,55,0.00,,,0.01,,2013-02-03 23:32:00,
2013-02-03 16:52:00,39.0,25.0,29.93,NE,49,0.0,3.0,56,-99.99,,,-99.99,,2013-02-03 23:52:00,
2013-02-03 17:01:00,39.0,25.0,29.93,NE,49,0.0,3.0,56,-99.99,,,-99.99,,2013-02-04 00:01:00,
2013-02-03 17:11:00,39.0,25.0,29.93,NE,49,0.0,3.0,56,-99.99,,,-99.99,,2013-02-04 00:11:00,
2013-02-03 17:21:00,38.0,26.0,29.94,NE,52,1.0,5.0,61,-99.99,,,-99.99,,2013-02-04 00:21:00,
2013-02-03 17:31:00,38.0,26.0,29.94,NE,52,1.0,5.0,61,-99.99,,,-99.99,,2013-02-04 00:31:00,
2013-02-03 17:42:00,38.0,26.0,29.94,NE,52,1.0,5.0,61,-99.99,,,-99.99,,2013-02-04 00:42:00,
2013-02-03 17:52:00,37.0,25.0,29.95,NNW,346,0.0,2.0,61,0.00,,,-99.99,,2013-02-04 00:52:00,
2013-02-03 18:01:00,37.0,25.0,29.95,NNW,346,0.0,2.0,61,0.00,,,-99.99,,2013-02-04 01:01:00,
2013-02-03 18:11:00,37.0,25.0,29.95,NNW,346,0.0,2.0,61,0.00,,,-99.99,,2013-02-04 01:11:00,
2013-02-03 18:21:00,36.0,25.0,29.93,NNW,346,0.0,2.0,64,0.00,,,-99.99,,2013-02-04 01:21:00,
2013-02-03 18:31:00,36.0,25.0,29.93,NNW,346,0.0,2.0,64,0.00,,,-99.99,,2013-02-04 01:31:00,
2013-02-03 18:42:00,36.0,25.0,29.93,NNW,346,0.0,2.0,64,0.00,,,-99.99,,2013-02-04 01:42:00,
2013-02-03 18:52:00,35.0,25.0,29.94,NNW,331,1.0,3.0,66,0.00,,,-99.99,,2013-02-04 01:52:00,
2013-02-03 19:01:00,35.0,25.0,29.94,NNW,331,1.0,3.0,66,0.00,,,-99.99,,2013-02-04 02:01:00,
2013-02-03 19:11:00,35.0,25.0,29.94,NNW,331,1.0,3.0,66,0.00,,,-99.99,,2013-02-04 02:11:00,
2013-02-03 19:21:00,36.0,25.0,29.92,North,355,1.0,4.0,64,0.00,,,-99.99,,2013-02-04 02:21:00,
2013-02-03 19:31:00,36.0,25.0,29.92,North,355,1.0,4.0,64,0.00,,,-99.99,,2013-02-04 02:31:00,
2013-02-03 19:42:00,36.0,25.0,29.92,North,355,1.0,4.0,64,0.00,,,-99.99,,2013-02-04 02:42:00,
2013-02-03 19:52:00,36.0,25.0,29.93,North,9,0.0,3.0,63,0.00,,,-99.99,,2013-02-04 02:52:00,
2013-02-03 20:01:00,36.0,25.0,29.93,North,9,0.0,3.0,63,0.00,,,-99.99,,2013-02-04 03:01:00,
2013-02-03 20:11:00,35.0,25.0,29.92,WNW,298,0.0,1.0,66,0.00,,,-99.99,,2013-02-04 03:11:00,
2013-02-03 20:21:00,35.0,25.0,29.92,WNW,298,0.0,1.0,66,0.00,,,-99.99,,2013-02-04 03:21:00,
2013-02-03 20:31:00,35.0,25.0,29.92,WNW,298,0.0,1.0,66,0.00,,,-99.99,,2013-02-04 03:31:00,
2013-02-03 20:42:00,35.0,25.0,29.92,WNW,298,0.0,1.0,66,0.00,,,-99.99,,2013-02-04 03:42:00,
2013-02-03 20:52:00,36.0,25.0,29.92,NNW,338,0.0,3.0,65,0.00,,,-99.99,,2013-02-04 03:52:00,
2013-02-03 21:01:00,36.0,25.0,29.92,NNW,338,0.0,3.0,65,0.00,,,-99.99,,2013-02-04 04:01:00,
2013-02-03 21:11:00,36.0,25.0,29.92,NNW,338,0.0,3.0,65,0.00,,,-99.99,,2013-02-04 04:11:00,
2013-02-03 21:21:00,36.0,25.0,29.92,NNW,338,0.0,3.0,65,0.00,,,-99.99,,2013-02-04 04:21:00,
2013-02-03 21:31:00,36.0,25.0,29.92,NNW,338,0.0,3.0,65,0.00,,,-99.99,,2013-02-04 04:31:00,
2013-02-03 21:52:00,35.0,25.0,29.92,NW,323,0.0,1.0,66,0.00,,,-99.99,,2013-02-04 04:52:00,
2013-02-03 22:03:00,35.0,25.0,29.92,NW,323,0.0,1.0,66,0.00,,,-99.99,,2013-02-04 05:03:00,
2013-02-03 22:11:00,35.0,25.0,29.92,NW,323,0.0,1.0,66,0.00,,,-99.99,,2013-02-04 05:11:00,
2013-02-03 22:22:00,36.0,25.0,29.90,ENE,61,1.0,3.0,64,0.00,,,-99.99,,2013-02-04 05:22:00,
2013-02-03 22:33:00,36.0,25.0,29.90,ENE,61,1.0,3.0,64,0.00,,,-99.99,,2013-02-04 05:33:00,
2013-02-03 22:42:00,36.0,25.0,29.90,ENE,61,1.0,3.0,64,0.00,,,-99.99,,2013-02-04 05:42:00,
2013-02-03 22:52:00,36.0,25.0,29.91,NE,51,2.0,4.0,64,0.00,,,-99.99,,2013-02-04 05:52:00,
2013-02-03 23:01:00,36.0,25.0,29.91,NE,51,2.0,4.0,64,0.00,,,-99.99,,2013-02-04 06:01:00,
2013-02-03 23:11:00,36.0,25.0,29.91,NE,51,2.0,4.0,64,0.00,,,-99.99,,2013-02-04 06:11:00,
2013-02-03 23:21:00,36.0,25.0,29.90,NNE,13,1.0,4.0,65,0.00,,,-99.99,,2013-02-04 06:21:00,
2013-02-03 23:31:00,36.0,25.0,29.90,NNE,13,1.0,4.0,65,0.00,,,-99.99,,2013-02-04 06:31:00,
2013-02-03 23:42:00,36.0,25.0,29.90,NNE,13,1.0,4.0,65,0.00,,,-99.99,,2013-02-04 06:42:00,
2013-02-03 23:52:00,36.0,25.0,29.89,North,11,1.0,5.0,64,0.00,,,-99.99,,2013-02-04 06:52:00,